Location: Campillo
(40.8621°N, 4.2488°W)
Time: 12:10:52
(UTC+00:00)

IGS 5A - Pass Details

Date: 11 May 2021
Orbit: 583 x 588 km, 97.6° (Epoch: 06 May)

Event Time Altitude Azimuth Distance (km) Brightness Sun altitude
Exits shadow 20:24:31 15° 130° (SE) 1,599 5.0 -10.7°
Maximum altitude 20:27:26 34° 71° (ENE) 968 4.3 -11.2°
Drops below altitude 10° 20:31:11 10° 6° (N) 1,913 6.5 -11.7°
Sets 20:33:29 0° 358° (N) 2,819 7.6 -12.1°
